This is the latest recevied weather packets stored in our database for station/object KB9HUO. If no packets are shown the sender has not sent any weather packets the latest 10 day(s).
| Time | Temp. | Humidity | Pressure | Rain* | Wind** | Luminosity | Snow |
|---|---|---|---|---|---|---|---|
| 1777900790 | 15° C | 84% | 1010.6 hPa | 0 mm | - | 70 W/m² | - |
| 1777900488 | 15° C | 83% | 1010.5 hPa | 0 mm | - | 58 W/m² | - |
| 1777900184 | 14.44° C | 85% | 1010.5 hPa | 0 mm | - | 62 W/m² | - |
| 1777899881 | 14.44° C | 85% | 1010.4 hPa | 0 mm | - | 66 W/m² | - |
| 1777899578 | 14.44° C | 85% | 1010 hPa | 0 mm | - | 64 W/m² | - |
| 1777899276 | 13.89° C | 86% | 1010.4 hPa | 0 mm | - | 77 W/m² | - |
| 1777898972 | 13.89° C | 88% | 1010.4 hPa | 0 mm | - | 88 W/m² | - |
| 1777898670 | 13.33° C | 89% | 1010.3 hPa | 0 mm | - | 88 W/m² | - |
| 1777898367 | 13.33° C | 89% | 1010.3 hPa | 0 mm | - | 80 W/m² | - |
| 1777898065 | 13.33° C | 90% | 1010.4 hPa | 0 mm | - | 55 W/m² | - |
| 1777897760 | 13.33° C | 90% | 1010.5 hPa | 0 mm | - | 46 W/m² | - |
| 1777897457 | 13.33° C | 90% | 1010.3 hPa | 0 mm | - | 46 W/m² | - |
| 1777897153 | 12.78° C | 90% | 1010.4 hPa | 0 mm | - | 45 W/m² | - |
| 1777896849 | 12.78° C | 91% | 1010.7 hPa | 0 mm | - | 49 W/m² | - |
| 1777896547 | 12.78° C | 90% | 1010.5 hPa | 0 mm | - | 42 W/m² | - |
| 1777896243 | 12.78° C | 90% | 1011 hPa | 0 mm | - | 27 W/m² | - |
| 1777895942 | 12.78° C | 89% | 1011.4 hPa | 0 mm | - | 11 W/m² | - |
| 1777895639 | 12.78° C | 89% | 1011.5 hPa | 0 mm | - | 15 W/m² | - |
| 1777895336 | 12.78° C | 89% | 1011.3 hPa | 0 mm | - | 17 W/m² | - |
| 1777895034 | 12.78° C | 89% | 1011.1 hPa | 0 mm | - | 9 W/m² | - |
| 1777894731 | 12.78° C | 89% | 1011.2 hPa | 0 mm | - | 3 W/m² | - |
| 1777894427 | 12.78° C | 88% | 1011.7 hPa | 0 mm | - | 3 W/m² | - |
| 1777894125 | 12.78° C | 88% | 1011.8 hPa | 0 mm | - | 2 W/m² | - |
| 1777893822 | 12.78° C | 88% | 1011.6 hPa | 0 mm | - | 1 W/m² | - |
| 1777893519 | 12.78° C | 88% | 1011.4 hPa | 1.78 mm | - | 1 W/m² | - |
* Rain latest hour (hover to see other rain measurements)
** Current wind speed in m/s (hover to see current wind gust speed)